Wind_Speed
75 73 73 74 77 76 78 80 83 80 78 78 68 65 47 30 23 24 26 28 33 31 28 33 36 41 44 49 52 54 60 66 75 85 93 97 100 102 104 104 103 100 98 99
76 71 72 74 73 73 78 79 79 76 72 65 49 40 26 21 17 17 14 16 20 28 26 31 36 38 39 39 40 45 51 58 66 75 85 93 98 101 104 107 107 106 104 102
73 70 70 71 70 73 75 76 75 75 70 55 37 19 10 13 13 14 13 12 17 22 25 24 27 29 32 34 36 35 35 45 57 66 73 82 93 99 103 106 110 110 109 107
69 70 67 66 69 72 72 72 73 68 56 51 25 30 5 8 8 14 12 9 12 17 20 26 28 32 36 37 38 38 37 35 37 48 61 71 80 91 98 107 110 114 113 111
66 66 64 68 70 72 72 70 68 60 42 36 19 25 15 14 15 14 17 13 16 23 27 31 34 35 36 38 37 35 35 35 35 41 48 55 65 76 89 99 109 113 115 115
66 67 66 66 69 70 70 66 60 49 32 25 15 19 13 6 9 8 13 17 24 23 27 34 36 35 32 33 33 33 31 33 37 39 41 46 56 65 76 86 100 111 115 117
63 66 64 66 68 68 63 57 53 45 28 20 12 15 14 13 18 21 25 23 24 25 26 31 35 36 37 36 35 35 36 37 39 41 44 45 44 46 55 70 84 98 113 118
63 60 60 63 68 68 59 53 40 32 27 26 17 14 13 14 18 20 24 23 23 23 27 30 32 34 35 35 35 36 39 42 43 44 47 51 53 52 50 59 70 87 103 115
62 61 58 62 62 63 58 43 33 24 24 25 13 5 5 14 21 22 22 21 23 27 29 31 32 33 35 36 38 37 37 35 41 44 42 46 58 59 55 57 63 74 91 107
62 62 59 60 61 52 50 39 24 22 25 19 11 1 18 16 12 10 14 18 20 22 25 28 31 33 36 37 37 33 34 38 38 43 50 48 43 58 62 58 61 64 77 96
60 62 61 59 58 55 42 33 21 19 20 22 9 5 19 15 18 13 16 18 20 23 26 29 31 34 35 31 28 34 43 41 40 42 48 55 53 51 63 64 58 64 67 82
59 62 61 57 54 51 35 20 15 17 19 18 15 6 16 19 18 20 22 24 26 27 30 30 31 30 27 31 38 37 37 43 43 44 43 49 56 55 51 67 63 65 67 72
60 59 61 54 48 43 29 17 15 19 14 10 18 12 18 18 16 20 23 23 27 28 31 32 34 33 33 33 36 36 38 45 45 38 39 42 47 52 49 58 67 61 70 68
61 55 53 51 42 32 23 18 14 14 12 12 13 17 14 14 15 16 17 22 25 28 32 33 35 31 35 40 40 44 44 42 37 34 22 27 37 45 45 49 55 67 62 72
57 53 49 43 32 22 20 17 16 15 16 14 13 18 15 17 17 19 19 23 25 28 30 30 31 31 35 41 45 43 44 45 35 25 19 24 18 40 52 49 55 58 64 64
53 52 49 39 31 25 21 18 16 17 15 15 16 18 19 18 19 21 21 21 24 28 29 27 29 29 34 41 45 46 48 52 42 25 26 24 11 23 40 47 57 62 63 64
52 52 49 36 32 24 23 22 22 22 19 16 17 19 17 14 16 16 17 21 23 27 29 25 27 28 29 38 48 51 49 52 45 38 29 28 19 5 27 38 49 47 56 67
51 53 49 43 35 27 24 23 22 21 22 21 19 21 19 18 17 17 17 18 21 24 27 26 25 24 23 32 41 46 48 52 47 40 29 30 21 13 12 33 47 45 50 60
50 51 48 44 41 32 23 21 22 23 21 25 22 22 20 16 14 22 18 20 19 21 25 25 23 22 27 29 34 41 45 47 56 44 31 24 17 13 10 12 28 43 48 54
49 49 47 43 43 39 23 20 21 26 21 22 22 21 18 16 12 15 16 16 18 19 21 24 23 25 28 26 29 34 41 47 51 55 41 25 15 12 7 12 19 23 30 36
47 46 45 41 41 37 24 21 21 22 21 20 22 23 21 18 18 14 13 12 14 15 18 21 23 22 26 26 29 29 34 40 50 52 53 37 19 13 12 13 19 22 25 32
44 45 44 43 34 31 27 25 22 21 18 21 22 23 20 20 19 17 14 11 11 13 17 18 19 20 23 26 28 28 29 35 41 44 51 55 33 22 13 12 22 28 31 32
42 45 46 43 29 26 27 29 23 22 21 21 22 23 22 20 17 16 15 12 12 10 13 15 16 16 18 22 24 27 26 29 36 40 44 49 53 31 25 11 16 20 24 27
40 44 47 46 27 31 27 27 21 19 20 21 21 21 21 17 15 14 16 15 14 11 10 12 15 16 15 18 21 24 27 29 30 32 36 40 43 47 35 23 16 20 27 19
46 51 46 47 36 34 26 23 20 19 18 18 19 20 20 16 12 8 10 11 11 13 12 11 13 14 13 13 15 17 21 25 27 29 29 32 36 40 42 42 39 33 32 28
51 48 48 45 37 36 26 22 20 19 17 17 18 18 21 15 12 11 12 15 16 15 15 14 13 14 14 13 11 13 14 17 21 24 25 27 28 36 37 39 42 45 39 33
Wind_Direction
321 318 313 313 311 312 312 313 313 313 312 310 314 309 313 307 275 272 274 264 255 250 258 259 256 251 250 252 255 249 244 237 232 232 233 232 230 228 228 227 225 226 223 223
321 315 314 313 313 314 313 315 313 315 314 313 319 320 321 297 302 304 290 282 265 250 252 250 251 252 254 254 254 254 250 247 239 233 230 230 230 228 226 225 224 223 223 221
320 314 313 313 314 313 315 316 318 315 316 320 311 313 350 344 340 330 313 308 273 259 254 254 260 268 271 269 267 266 264 252 241 241 237 233 230 228 226 225 224 222 221 220
317 314 314 315 316 315 319 320 317 316 320 322 314 301 322 301 322 320 317 302 305 283 274 269 271 270 272 275 276 276 273 266 252 243 242 240 237 231 227 225 224 223 221 220
317 314 317 318 318 321 321 322 318 320 318 316 311 302 300 309 303 309 311 304 297 275 265 266 271 272 273 274 276 277 275 271 262 252 244 242 241 238 231 227 224 223 222 219
316 316 319 323 323 325 323 322 320 316 317 308 307 316 321 278 284 290 278 276 283 287 280 271 275 280 277 276 273 273 273 268 264 258 252 248 247 244 241 234 226 223 221 220
318 319 327 325 326 325 324 322 319 317 329 321 304 303 301 299 292 278 272 280 284 288 287 285 285 284 283 282 282 280 278 273 265 261 255 247 241 245 246 241 235 226 221 219
320 323 329 328 327 328 326 324 318 312 321 321 317 296 300 326 302 291 285 291 294 298 296 292 290 288 285 282 277 274 275 276 267 263 258 252 250 248 247 243 238 231 224 219
325 329 333 330 327 328 327 324 312 300 306 315 330 359 359 319 304 309 306 302 303 302 301 297 293 291 289 289 289 286 288 281 273 267 265 261 251 250 244 240 237 233 226 221
331 331 333 332 330 329 327 321 301 297 312 319 331 60 332 314 317 306 306 305 307 307 308 305 303 303 301 301 297 293 291 286 280 273 264 256 258 248 243 239 234 233 228 223
332 333 335 332 333 331 331 327 288 295 295 308 327 359 324 332 334 323 328 324 325 322 326 326 320 313 308 303 299 290 289 288 279 276 266 253 254 256 242 236 234 228 227 224
333 333 334 334 334 332 336 325 271 287 307 309 307 26 315 330 339 331 338 334 328 331 338 332 327 321 320 314 302 306 310 302 294 286 272 260 250 249 251 229 228 227 224 223
334 334 332 336 335 334 339 321 286 299 321 310 310 317 321 326 330 327 326 330 329 333 338 338 333 338 335 334 331 326 323 323 308 307 280 265 258 245 238 232 225 226 223 220
334 333 333 333 335 333 333 324 310 315 317 318 292 323 324 313 325 319 326 331 332 337 340 340 338 343 337 348 343 340 343 338 319 315 294 264 264 241 230 228 229 225 223 219
333 332 333 330 332 315 314 317 313 312 308 310 305 329 327 324 328 330 337 336 339 339 342 342 341 347 340 352 353 350 355 349 327 317 317 313 287 237 230 228 227 226 222 220
330 332 332 332 327 314 304 298 297 301 294 295 317 333 330 321 323 329 328 336 340 342 346 348 346 349 344 356 359 357 357 355 348 346 354 344 317 232 229 231 223 218 219 219
330 330 331 335 325 309 300 298 296 300 292 290 308 315 323 322 308 314 324 331 339 345 346 354 352 357 353 6 5 2 3 9 9 6 7 360 357 281 217 213 207 216 216 213
330 327 330 331 326 316 301 293 290 296 295 290 291 299 309 326 328 322 325 339 337 343 347 353 4 2 360 14 4 359 6 20 14 5 18 13 5 353 212 208 207 206 205 209
329 326 329 327 325 324 303 294 290 292 293 293 293 295 299 308 326 317 324 333 335 342 346 354 4 11 15 17 8 6 8 22 28 20 13 30 12 23 77 154 192 204 208 211
329 327 325 323 322 324 313 290 288 288 293 287 290 292 297 294 298 309 308 322 332 341 348 352 4 11 19 13 11 12 11 17 32 36 30 31 32 32 73 131 160 178 190 194
327 324 322 318 321 323 310 289 283 278 280 281 286 292 298 299 291 301 316 315 330 338 345 346 360 9 15 22 19 18 21 21 31 36 36 37 37 54 73 120 147 159 170 181
326 321 317 316 321 318 300 286 275 270 280 281 287 290 292 301 295 287 310 329 321 333 343 346 347 4 7 23 23 23 27 32 39 33 40 43 47 53 102 114 127 134 142 149
324 317 316 316 322 303 303 288 276 269 270 282 284 286 282 296 294 275 287 310 333 320 333 341 340 349 4 12 23 24 29 37 48 47 43 41 48 71 74 93 159 155 161 167
317 312 318 313 310 302 308 288 280 276 272 279 288 282 282 290 291 276 278 292 304 321 312 323 333 340 347 360 8 27 30 29 46 56 59 56 53 59 70 84 117 126 116 120
314 317 315 317 307 304 306 287 270 269 268 277 288 277 275 275 279 279 285 301 314 318 315 310 307 323 326 337 353 10 27 34 28 42 62 73 74 73 76 73 67 88 115 142
316 320 318 316 302 301 299 293 263 268 268 273 287 280 272 258 255 272 288 295 300 308 319 312 296 297 310 311 327 344 12 27 35 26 38 65 75 83 83 87 93 100 102 115
Height
5602 5590 5576 5565 5548 5532 5519 5509 5491 5485 5473 5450 5442 5430 5422 5414 5405 5403 5405 5403 5405 5406 5409 5410 5412 5413 5414 5415 5415 5418 5424 5430 5435 5441 5449 5459 5469 5482 5497 5510 5525 5539 5554 5566
5589 5574 5561 5548 5533 5518 5501 5489 5476 5469 5454 5435 5429 5420 5413 5404 5405 5403 5401 5400 5399 5401 5401 5401 5400 5401 5402 5402 5403 5404 5407 5412 5416 5420 5426 5433 5444 5457 5469 5483 5500 5515 5530 5544
5573 5558 5546 5532 5520 5507 5491 5471 5460 5442 5438 5430 5415 5417 5413 5408 5403 5399 5397 5395 5395 5393 5391 5391 5392 5393 5392 5392 5392 5392 5392 5394 5398 5402 5406 5411 5418 5431 5446 5460 5473 5488 5502 5518
5559 5543 5532 5519 5505 5489 5482 5464 5446 5431 5419 5416 5410 5404 5409 5405 5400 5398 5395 5393 5391 5391 5389 5388 5388 5386 5385 5384 5383 5382 5381 5382 5384 5385 5388 5392 5397 5406 5420 5431 5446 5461 5477 5494
5542 5530 5519 5504 5488 5474 5464 5452 5436 5423 5414 5408 5408 5402 5403 5401 5397 5394 5392 5389 5386 5385 5384 5382 5380 5379 5378 5376 5374 5372 5371 5371 5371 5372 5373 5375 5379 5386 5393 5404 5418 5435 5452 5470
5530 5515 5505 5489 5476 5460 5447 5439 5425 5415 5409 5404 5402 5399 5398 5396 5393 5390 5387 5383 5381 5380 5377 5375 5372 5370 5368 5366 5363 5361 5360 5360 5360 5361 5362 5364 5366 5370 5374 5384 5394 5409 5426 5445
5521 5504 5489 5473 5465 5454 5437 5421 5412 5405 5404 5399 5397 5396 5394 5392 5388 5385 5381 5379 5377 5374 5371 5368 5364 5360 5357 5354 5352 5350 5348 5348 5347 5347 5348 5349 5351 5353 5357 5363 5372 5384 5400 5420
5508 5499 5480 5464 5445 5439 5430 5415 5403 5393 5393 5390 5392 5391 5390 5387 5383 5378 5377 5375 5371 5369 5364 5360 5355 5351 5347 5344 5342 5340 5337 5335 5332 5331 5332 5332 5334 5337 5340 5344 5351 5361 5375 5394
5491 5489 5473 5455 5442 5429 5419 5408 5400 5392 5391 5386 5385 5386 5386 5383 5378 5376 5374 5370 5367 5362 5358 5353 5348 5342 5338 5334 5330 5327 5324 5320 5317 5314 5313 5313 5313 5315 5320 5323 5329 5340 5354 5371
5480 5473 5463 5448 5435 5422 5410 5403 5396 5392 5386 5381 5382 5382 5380 5378 5375 5372 5369 5365 5362 5357 5353 5347 5341 5335 5329 5323 5318 5314 5309 5306 5301 5297 5294 5293 5292 5293 5297 5303 5312 5321 5334 5348
5471 5460 5454 5438 5426 5415 5403 5394 5390 5388 5386 5382 5380 5382 5376 5373 5370 5367 5364 5360 5356 5352 5346 5340 5333 5326 5319 5313 5308 5303 5297 5290 5282 5276 5272 5270 5271 5272 5274 5283 5292 5302 5312 5326
5463 5452 5441 5430 5419 5408 5399 5391 5387 5385 5385 5382 5379 5380 5374 5370 5367 5362 5359 5355 5351 5346 5341 5334 5326 5318 5311 5305 5299 5292 5283 5275 5265 5256 5249 5245 5245 5248 5253 5261 5273 5280 5293 5304
5454 5441 5432 5425 5414 5401 5394 5389 5386 5383 5381 5380 5376 5376 5372 5369 5366 5361 5355 5353 5348 5343 5337 5329 5322 5312 5304 5295 5287 5280 5270 5259 5242 5230 5222 5221 5223 5226 5233 5240 5251 5263 5275 5288
5445 5435 5423 5414 5405 5397 5392 5388 5384 5381 5379 5378 5375 5371 5370 5367 5362 5359 5355 5351 5345 5339 5332 5325 5317 5309 5300 5289 5278 5268 5258 5243 5228 5218 5211 5208 5204 5206 5214 5224 5234 5247 5259 5272
5440 5431 5420 5409 5402 5396 5391 5387 5383 5380 5378 5375 5374 5368 5364 5361 5357 5354 5350 5347 5343 5337 5331 5322 5314 5305 5296 5286 5274 5263 5251 5235 5217 5206 5200 5194 5186 5189 5197 5207 5218 5229 5242 5258
5433 5424 5415 5406 5397 5391 5387 5384 5382 5379 5376 5372 5369 5366 5361 5358 5355 5351 5348 5345 5340 5335 5328 5320 5311 5303 5294 5283 5270 5258 5246 5228 5209 5198 5191 5184 5177 5176 5181 5188 5197 5212 5227 5241
5426 5415 5408 5402 5392 5387 5382 5379 5377 5375 5372 5369 5365 5363 5360 5357 5353 5350 5346 5342 5338 5332 5326 5318 5310 5302 5293 5280 5268 5257 5245 5228 5206 5195 5187 5179 5171 5167 5169 5176 5186 5200 5211 5226
5419 5409 5401 5394 5386 5382 5377 5374 5372 5370 5367 5365 5362 5358 5356 5353 5348 5345 5342 5340 5335 5331 5325 5318 5310 5302 5294 5283 5274 5262 5248 5231 5211 5197 5187 5178 5171 5166 5164 5169 5179 5191 5203 5219
5412 5402 5392 5386 5378 5375 5370 5368 5367 5364 5364 5359 5357 5355 5352 5350 5347 5341 5339 5337 5334 5330 5324 5317 5311 5303 5295 5285 5277 5265 5252 5237 5221 5203 5190 5183 5178 5174 5169 5169 5176 5188 5200 5213
5404 5394 5385 5377 5371 5366 5364 5362 5360 5358 5358 5354 5352 5350 5347 5345 5344 5340 5337 5335 5332 5328 5323 5318 5312 5304 5299 5291 5281 5271 5258 5243 5230 5214 5200 5190 5189 5186 5182 5182 5185 5192 5200 5209
5396 5387 5378 5370 5363 5359 5356 5354 5353 5353 5354 5349 5347 5345 5343 5340 5338 5336 5333 5332 5330 5327 5324 5318 5313 5308 5302 5294 5285 5276 5266 5253 5239 5227 5213 5203 5198 5197 5195 5192 5193 5197 5204 5213
5391 5381 5371 5364 5361 5354 5349 5346 5346 5345 5345 5343 5342 5340 5338 5335 5333 5331 5329 5328 5327 5325 5323 5319 5315 5310 5305 5299 5291 5282 5274 5263 5253 5241 5228 5218 5210 5206 5207 5208 5209 5211 5216 5223
5383 5375 5366 5359 5357 5348 5342 5337 5338 5338 5339 5338 5337 5334 5333 5331 5328 5327 5325 5325 5324 5323 5321 5319 5315 5312 5308 5303 5298 5289 5281 5274 5265 5256 5244 5233 5227 5222 5218 5219 5219 5225 5229 5236
5374 5363 5357 5349 5351 5341 5337 5332 5332 5332 5332 5331 5330 5329 5328 5327 5324 5323 5321 5321 5320 5320 5320 5318 5315 5312 5310 5306 5301 5296 5289 5282 5276 5270 5263 5254 5246 5240 5235 5234 5235 5236 5237 5244
5365 5356 5350 5342 5338 5333 5331 5327 5326 5326 5325 5325 5324 5323 5323 5322 5320 5319 5318 5317 5317 5316 5317 5317 5315 5312 5310 5309 5306 5301 5296 5290 5284 5279 5275 5271 5265 5261 5255 5250 5245 5246 5248 5251
5354 5349 5340 5334 5329 5324 5324 5322 5320 5320 5319 5319 5318 5317 5316 5317 5316 5316 5315 5313 5313 5312 5313 5313 5314 5311 5309 5308 5308 5305 5302 5297 5293 5288 5283 5281 5276 5274 5271 5269 5267 5267 5270 5272